Weather History for Payson, AZ

Change the Weather History Date:

Tuesday, October 9, 2012

  Actual Average Record
Temperature  
Mean Temperature 62 °F -  
Max Temperature 75 °F 77 °F 75 °F (2012)
Min Temperature 48 °F 41 °F 42 °F (2011)
Degree Days  
Heating Degree Days 4    
Growing Degree Days 12 (Base 50)    
Moisture  
Dew Point 37 °F    
Average Humidity 41    
Maximum Humidity 62    
Minimum Humidity 25    
Precipitation  
Precipitation 0.00 in - - ()
Sea Level Pressure  
Sea Level Pressure 30.13 in    
Wind  
Wind Speed 3 mph (WSW)    
Max Wind Speed 10 mph    
Max Gust Speed -    
Visibility 10 miles    
Events      
Averages and records for this station are not official NWS values.
T = Trace of Precipitation, MM = Missing Value Source: NWS Daily Summary

Daily Weather History Graph

Daily Weather History Graph

Search for Another Location

Airport:

Trip Planner

Search our weather history database for the weather conditions in past years. The results will help you decide how hot, cold, wet, or windy it might be!

Date:

Astronomy

Oct. 09, 2012 Rise Set
Actual Time 6:26 AM MST 5:57 PM MST
Civil Twilight 6:01 AM MST 6:23 PM MST
Nautical Twilight 5:32 AM MST 6:52 PM MST
Astronomical Twilight 5:03 AM MST 7:21 PM MST
Moon 12:21 AM MST (10/9) 2:13 PM MST (10/9)
Length of Visible Light 12h 21m
Length of Day
11h 31m
Waning Crescent, 35% of the Moon is Illuminated
Oct 9
Waning Crescent
Oct 15
New
Oct 21
First Quarter
Oct 29
Full
Nov 6
Last Quarter

Hourly Weather History & Observations

Time (MST) Temp. Dew Point Humidity Pressure Visibility Wind Dir Wind Speed Gust Speed Precip Events Conditions
12:15 AM 53.6 °F 33.8 °F 47% 30.13 in 10.0 mi Calm Calm - N/A   Clear
12:35 AM 53.6 °F 33.8 °F 47% 30.13 in 10.0 mi WNW 3.5 mph - N/A   Clear
1:15 AM 53.6 °F 33.8 °F 47% 30.13 in 10.0 mi Calm Calm - N/A   Clear
1:35 AM 53.6 °F 33.8 °F 47% 30.13 in 10.0 mi Calm Calm - N/A   Clear
2:15 AM 50.0 °F 33.8 °F 54% 30.14 in 10.0 mi NW 3.5 mph - N/A   Clear
2:35 AM 50.0 °F 33.8 °F 54% 30.13 in 10.0 mi NW 3.5 mph - N/A   Clear
2:55 AM 51.8 °F 33.8 °F 50% 30.12 in 10.0 mi NNE 3.5 mph - N/A   Clear
3:15 AM 51.8 °F 33.8 °F 50% 30.12 in 10.0 mi NW 3.5 mph - N/A   Clear
3:35 AM 51.8 °F 33.8 °F 50% 30.12 in 10.0 mi Calm Calm - N/A   Clear
3:55 AM 51.8 °F 33.8 °F 50% 30.12 in 10.0 mi Calm Calm - N/A   Clear
4:15 AM 51.8 °F 33.8 °F 50% 30.12 in 10.0 mi NW 3.5 mph - N/A   Clear
4:35 AM 51.8 °F 35.6 °F 54% 30.12 in 10.0 mi Calm Calm - N/A   Clear
5:15 AM 51.8 °F 35.6 °F 54% 30.13 in 10.0 mi Calm Calm - N/A   Clear
5:35 AM 53.6 °F 35.6 °F 51% 30.13 in 10.0 mi Calm Calm - N/A   Clear
5:55 AM 50.0 °F 35.6 °F 58% 30.13 in 10.0 mi Calm Calm - N/A   Clear
6:15 AM 50.0 °F 35.6 °F 58% 30.14 in 10.0 mi Calm Calm - N/A   Clear
6:35 AM 50.0 °F 35.6 °F 58% 30.14 in 10.0 mi Calm Calm - N/A   Clear
6:55 AM 48.2 °F 35.6 °F 62% 30.15 in 10.0 mi Calm Calm - N/A   Clear
7:15 AM 51.8 °F 35.6 °F 54% 30.15 in 10.0 mi WNW 3.5 mph - N/A   Clear
7:35 AM 53.6 °F 35.6 °F 51% 30.16 in 10.0 mi Calm Calm - N/A   Clear
7:55 AM 57.2 °F 37.4 °F 48% 30.17 in 10.0 mi Calm Calm - N/A   Clear
8:15 AM 62.6 °F 37.4 °F 39% 30.17 in 10.0 mi Calm Calm - N/A   Clear
8:35 AM 64.4 °F 37.4 °F 37% 30.18 in 10.0 mi ESE 4.6 mph - N/A   Clear
8:55 AM 66.2 °F 39.2 °F 37% 30.18 in 10.0 mi ESE 3.5 mph - N/A   Clear
9:15 AM 66.2 °F 39.2 °F 37% 30.18 in 10.0 mi Calm Calm - N/A   Clear
9:35 AM 68.0 °F 44.6 °F 43% 30.18 in 10.0 mi West 4.6 mph - N/A   Clear
9:55 AM 69.8 °F 42.8 °F 38% 30.18 in 10.0 mi South 5.8 mph - N/A   Clear
10:15 AM 69.8 °F 42.8 °F 38% 30.18 in 10.0 mi SW 6.9 mph - N/A   Clear
10:35 AM 69.8 °F 42.8 °F 38% 30.18 in 10.0 mi West 3.5 mph - N/A   Clear
10:55 AM 71.6 °F 42.8 °F 35% 30.18 in 10.0 mi WSW 3.5 mph - N/A   Clear
11:15 AM 71.6 °F 41.0 °F 33% 30.17 in 10.0 mi SW 3.5 mph - N/A   Clear
11:35 AM 71.6 °F 42.8 °F 35% 30.16 in 8.0 mi SW 5.8 mph - N/A   Clear
11:55 AM 71.6 °F 42.8 °F 35% 30.16 in 10.0 mi SSE 3.5 mph - N/A   Clear
12:15 PM 73.4 °F 39.2 °F 29% 30.15 in 5.0 mi WSW 8.1 mph - N/A   Clear
12:35 PM 73.4 °F 39.2 °F 29% 30.13 in 10.0 mi SSW 8.1 mph - N/A   Clear
12:55 PM 73.4 °F 39.2 °F 29% 30.12 in 10.0 mi SW 8.1 mph - N/A   Clear
1:15 PM 73.4 °F 39.2 °F 29% 30.11 in 10.0 mi SSE 10.4 mph - N/A   Clear
1:35 PM 73.4 °F 37.4 °F 27% 30.11 in 10.0 mi WSW 9.2 mph - N/A   Clear
1:55 PM 73.4 °F 37.4 °F 27% 30.11 in 10.0 mi SW 8.1 mph - N/A   Clear
2:15 PM 75.2 °F 37.4 °F 25% 30.10 in 8.0 mi South 6.9 mph - N/A   Clear
2:35 PM 75.2 °F 37.4 °F 25% 30.10 in 10.0 mi West 6.9 mph - N/A   Clear
2:55 PM 75.2 °F 37.4 °F 25% 30.09 in 10.0 mi SSW 5.8 mph - N/A   Clear
3:15 PM 75.2 °F 37.4 °F 25% 30.09 in 10.0 mi WNW 4.6 mph - N/A   Clear
3:55 PM 75.2 °F 37.4 °F 25% 30.09 in 10.0 mi South 5.8 mph - N/A   Clear
4:15 PM 73.4 °F 37.4 °F 27% 30.08 in 10.0 mi West 5.8 mph - N/A   Clear
4:35 PM 73.4 °F 35.6 °F 25% 30.08 in 10.0 mi West 9.2 mph - N/A   Clear
4:55 PM 73.4 °F 37.4 °F 27% 30.08 in 10.0 mi West 6.9 mph - N/A   Clear
5:15 PM 71.6 °F 37.4 °F 29% 30.09 in 10.0 mi West 9.2 mph - N/A   Clear
5:35 PM 71.6 °F 37.4 °F 29% 30.09 in 10.0 mi West 8.1 mph - N/A   Clear
5:55 PM 69.8 °F 39.2 °F 33% 30.09 in 10.0 mi WSW 5.8 mph - N/A   Clear
6:15 PM 68.0 °F 39.2 °F 35% 30.09 in 10.0 mi SW 3.5 mph - N/A   Clear
6:35 PM 68.0 °F 39.2 °F 35% 30.10 in 10.0 mi WSW 3.5 mph - N/A   Clear
6:55 PM 66.2 °F 39.2 °F 37% 30.11 in 10.0 mi Calm Calm - N/A   Clear
7:15 PM 64.4 °F 39.2 °F 40% 30.12 in 10.0 mi Calm Calm - N/A   Clear
7:35 PM 64.4 °F 37.4 °F 37% 30.12 in 10.0 mi West 3.5 mph - N/A   Clear
7:55 PM 64.4 °F 37.4 °F 37% 30.13 in 10.0 mi Calm Calm - N/A   Clear
8:15 PM 64.4 °F 37.4 °F 37% 30.13 in 10.0 mi Calm Calm - N/A   Clear
8:35 PM 62.6 °F 37.4 °F 39% 30.14 in 10.0 mi Calm Calm - N/A   Clear
8:55 PM 62.6 °F 37.4 °F 39% 30.14 in 10.0 mi Calm Calm - N/A   Clear
9:15 PM 62.6 °F 37.4 °F 39% 30.15 in 10.0 mi NNE 3.5 mph - N/A   Clear
9:35 PM 60.8 °F 37.4 °F 42% 30.14 in 10.0 mi Calm Calm - N/A   Clear
9:55 PM 59.0 °F 37.4 °F 45% 30.15 in 10.0 mi NNE 4.6 mph - N/A   Clear
10:15 PM 59.0 °F 37.4 °F 45% 30.15 in 10.0 mi Calm Calm - N/A   Clear
10:35 PM 57.2 °F 37.4 °F 48% 30.15 in 10.0 mi Calm Calm - N/A   Clear
10:55 PM 57.2 °F 37.4 °F 48% 30.15 in 10.0 mi Calm Calm - N/A   Clear
11:15 PM 57.2 °F 37.4 °F 48% 30.15 in 10.0 mi Calm Calm - N/A   Clear
11:35 PM 55.4 °F 37.4 °F 51% 30.15 in 10.0 mi Calm Calm - N/A   Clear
11:55 PM 53.6 °F 37.4 °F 54% 30.15 in 10.0 mi WNW 3.5 mph - N/A   Clear